Time,TemperatureF,DewpointF,PressureIn,WindDirection,WindDirectionDegrees,WindSpeedMPH,WindSpeedGustMPH,Humidity,HourlyPrecipIn,Conditions,Clouds,dailyrainin,SoftwareType,DateUTC
2013-06-13 00:02:00,58.0,-99.9,-100.00,South,187,2.0,5.0,-999,0.00,,,-99.99,,2013-06-13 06:02:00,
2013-06-13 00:12:00,58.0,-99.9,-100.00,SE,138,4.0,5.0,-999,0.00,,,-99.99,,2013-06-13 06:12:00,
2013-06-13 00:22:00,58.0,-99.9,-100.00,SSW,194,4.0,6.0,-999,0.00,,,-99.99,,2013-06-13 06:22:00,
2013-06-13 00:33:00,58.0,-99.9,-100.00,South,169,4.0,6.0,-999,0.00,,,-99.99,,2013-06-13 06:33:00,
2013-06-13 00:44:00,59.0,-99.9,-100.00,South,176,5.0,7.0,-999,0.00,,,-99.99,,2013-06-13 06:44:00,
2013-06-13 00:53:00,58.0,-99.9,-100.00,South,177,4.0,5.0,-999,0.00,,,-99.99,,2013-06-13 06:53:00,
2013-06-13 01:02:00,59.0,-99.9,-100.00,South,172,4.0,6.0,-999,0.00,,,-99.99,,2013-06-13 07:02:00,
2013-06-13 01:12:00,59.0,-99.9,-100.00,South,190,4.0,7.0,-999,0.00,,,-99.99,,2013-06-13 07:12:00,
2013-06-13 01:22:00,59.0,-99.9,-100.00,South,180,5.0,8.0,-999,0.00,,,-99.99,,2013-06-13 07:22:00,
2013-06-13 01:33:00,59.0,-99.9,-100.00,SE,124,6.0,8.0,-999,0.00,,,-99.99,,2013-06-13 07:33:00,
2013-06-13 01:43:00,59.0,-99.9,-100.00,SE,135,4.0,7.0,-999,0.00,,,-99.99,,2013-06-13 07:43:00,
2013-06-13 01:52:00,59.0,-99.9,-100.00,SSW,208,4.0,6.0,-999,0.00,,,-99.99,,2013-06-13 07:52:00,
2013-06-13 02:02:00,59.0,-99.9,-100.00,South,174,5.0,7.0,-999,0.00,,,-99.99,,2013-06-13 08:02:00,
2013-06-13 02:12:00,59.0,-99.9,-100.00,South,176,1.0,4.0,-999,0.00,,,-99.99,,2013-06-13 08:12:00,
2013-06-13 02:22:00,59.0,-99.9,-100.00,South,184,5.0,7.0,-999,0.00,,,-99.99,,2013-06-13 08:22:00,
2013-06-13 02:32:00,59.0,-99.9,-100.00,SSW,203,5.0,7.0,-999,0.00,,,-99.99,,2013-06-13 08:32:00,
2013-06-13 02:43:00,59.0,-99.9,-100.00,South,174,5.0,7.0,-999,0.00,,,-99.99,,2013-06-13 08:43:00,
2013-06-13 02:52:00,59.0,-99.9,-100.00,SSE,162,6.0,8.0,-999,0.00,,,-99.99,,2013-06-13 08:52:00,
2013-06-13 03:02:00,59.0,-99.9,-100.00,South,176,7.0,9.0,-999,0.00,,,-99.99,,2013-06-13 09:02:00,
2013-06-13 03:12:00,59.0,-99.9,-100.00,SE,125,7.0,9.0,-999,0.00,,,-99.99,,2013-06-13 09:12:00,
2013-06-13 03:22:00,59.0,-99.9,-100.00,SSW,194,6.0,8.0,-999,0.00,,,-99.99,,2013-06-13 09:22:00,
2013-06-13 03:32:00,59.0,-99.9,-100.00,SSW,194,6.0,7.0,-999,0.00,,,-99.99,,2013-06-13 09:32:00,
2013-06-13 03:42:00,59.0,-99.9,-100.00,South,188,6.0,9.0,-999,0.00,,,-99.99,,2013-06-13 09:42:00,
2013-06-13 03:52:00,59.0,-99.9,-100.00,South,172,6.0,8.0,-999,0.00,,,-99.99,,2013-06-13 09:52:00,
2013-06-13 04:02:00,59.0,-99.9,-100.00,South,172,6.0,8.0,-999,0.00,,,-99.99,,2013-06-13 10:02:00,
2013-06-13 04:12:00,59.0,-99.9,-100.00,SSW,198,2.0,5.0,-999,0.00,,,-99.99,,2013-06-13 10:12:00,
2013-06-13 04:22:00,58.0,-99.9,-100.00,SSW,204,5.0,7.0,-999,0.00,,,-99.99,,2013-06-13 10:22:00,
2013-06-13 04:33:00,59.0,-99.9,-100.00,South,190,6.0,7.0,-999,0.00,,,-99.99,,2013-06-13 10:33:00,
2013-06-13 04:43:00,59.0,-99.9,-100.00,South,186,5.0,8.0,-999,0.00,,,-99.99,,2013-06-13 10:43:00,
2013-06-13 04:53:00,59.0,-99.9,-100.00,SSW,198,6.0,8.0,-999,0.00,,,-99.99,,2013-06-13 10:53:00,
2013-06-13 05:02:00,58.0,-99.9,-100.00,South,187,6.0,8.0,-999,0.00,,,-99.99,,2013-06-13 11:02:00,
2013-06-13 05:12:00,58.0,-99.9,-100.00,South,184,6.0,9.0,-999,0.00,,,-99.99,,2013-06-13 11:12:00,
2013-06-13 05:24:00,58.0,-99.9,-100.00,South,187,6.0,8.0,-999,0.00,,,-99.99,,2013-06-13 11:24:00,
2013-06-13 05:32:00,57.0,-99.9,-100.00,South,174,6.0,8.0,-999,0.00,,,-99.99,,2013-06-13 11:32:00,
2013-06-13 05:43:00,58.0,-99.9,-100.00,SSE,155,6.0,8.0,-999,0.00,,,-99.99,,2013-06-13 11:43:00,
2013-06-13 05:52:00,57.0,-99.9,-100.00,SSE,155,5.0,7.0,-999,0.00,,,-99.99,,2013-06-13 11:52:00,
2013-06-13 06:02:00,57.0,-99.9,-100.00,SE,138,4.0,6.0,-999,0.00,,,-99.99,,2013-06-13 12:02:00,
2013-06-13 06:12:00,57.0,-99.9,-100.00,SSW,198,6.0,7.0,-999,0.00,,,-99.99,,2013-06-13 12:12:00,
2013-06-13 06:23:00,56.0,-99.9,-100.00,SSE,166,5.0,6.0,-999,0.00,,,-99.99,,2013-06-13 12:23:00,
2013-06-13 06:35:00,58.0,-99.9,-100.00,SW,218,6.0,8.0,-999,0.00,,,-99.99,,2013-06-13 12:35:00,
2013-06-13 06:43:00,59.0,-99.9,-100.00,SSW,210,5.0,7.0,-999,0.00,,,-99.99,,2013-06-13 12:43:00,
2013-06-13 06:52:00,59.0,-99.9,-100.00,SSW,200,5.0,7.0,-999,0.00,,,-99.99,,2013-06-13 12:52:00,
2013-06-13 07:02:00,59.0,-99.9,-100.00,SSW,208,5.0,6.0,-999,0.00,,,-99.99,,2013-06-13 13:02:00,
2013-06-13 07:12:00,60.0,-99.9,-100.00,South,190,5.0,7.0,-999,0.00,,,-99.99,,2013-06-13 13:12:00,
2013-06-13 07:22:00,60.0,-99.9,-100.00,SSW,194,3.0,5.0,-999,0.00,,,-99.99,,2013-06-13 13:22:00,
2013-06-13 07:33:00,62.0,-99.9,-100.00,North,0,0.0,0.0,-999,0.00,,,-99.99,,2013-06-13 13:33:00,
2013-06-13 07:43:00,62.0,-99.9,-100.00,SW,224,4.0,6.0,-999,0.00,,,-99.99,,2013-06-13 13:43:00,
2013-06-13 07:53:00,62.0,-99.9,-100.00,SSW,211,2.0,5.0,-999,0.00,,,-99.99,,2013-06-13 13:53:00,
2013-06-13 08:02:00,61.0,-99.9,-100.00,SW,222,6.0,7.0,-999,0.00,,,-99.99,,2013-06-13 14:02:00,
2013-06-13 08:12:00,62.0,-99.9,-100.00,South,191,7.0,8.0,-999,0.00,,,-99.99,,2013-06-13 14:12:00,
2013-06-13 08:22:00,62.0,-99.9,-100.00,South,177,6.0,9.0,-999,0.00,,,-99.99,,2013-06-13 14:22:00,
2013-06-13 08:33:00,61.0,-99.9,-100.00,SSW,205,7.0,9.0,-999,0.00,,,-99.99,,2013-06-13 14:33:00,
2013-06-13 08:43:00,64.0,-99.9,-100.00,SSW,201,6.0,8.0,-999,0.00,,,-99.99,,2013-06-13 14:43:00,
2013-06-13 08:53:00,64.0,-99.9,-100.00,South,184,6.0,8.0,-999,0.00,,,-99.99,,2013-06-13 14:53:00,
2013-06-13 09:02:00,65.0,-99.9,-100.00,SSW,208,7.0,8.0,-999,0.00,,,-99.99,,2013-06-13 15:02:00,
2013-06-13 09:12:00,65.0,-99.9,-100.00,South,190,7.0,8.0,-999,0.00,,,-99.99,,2013-06-13 15:12:00,
2013-06-13 09:22:00,65.0,-99.9,-100.00,South,170,6.0,9.0,-999,0.00,,,-99.99,,2013-06-13 15:22:00,
2013-06-13 09:33:00,66.0,-99.9,-100.00,South,186,6.0,8.0,-999,0.00,,,-99.99,,2013-06-13 15:33:00,
2013-06-13 09:43:00,67.0,-99.9,-100.00,South,184,6.0,7.0,-999,0.00,,,-99.99,,2013-06-13 15:43:00,
2013-06-13 09:53:00,67.0,-99.9,-100.00,South,173,7.0,8.0,-999,0.00,,,-99.99,,2013-06-13 15:53:00,
2013-06-13 10:02:00,67.0,-99.9,-100.00,South,187,6.0,8.0,-999,0.00,,,-99.99,,2013-06-13 16:02:00,
2013-06-13 10:12:00,67.0,-99.9,-100.00,SSW,194,7.0,8.0,-999,0.00,,,-99.99,,2013-06-13 16:12:00,
2013-06-13 10:22:00,67.0,-99.9,-100.00,South,181,7.0,8.0,-999,0.00,,,-99.99,,2013-06-13 16:22:00,
2013-06-13 10:34:00,68.0,-99.9,-100.00,SSW,201,6.0,8.0,-999,0.00,,,-99.99,,2013-06-13 16:34:00,
2013-06-13 10:43:00,68.0,-99.9,-100.00,South,187,6.0,9.0,-999,0.00,,,-99.99,,2013-06-13 16:43:00,
2013-06-13 10:54:00,70.0,-99.9,-100.00,SSW,197,7.0,9.0,-999,0.00,,,-99.99,,2013-06-13 16:54:00,
2013-06-13 11:02:00,70.0,-99.9,-100.00,SSW,195,7.0,9.0,-999,0.00,,,-99.99,,2013-06-13 17:02:00,
2013-06-13 11:12:00,71.0,-99.9,-100.00,SW,219,6.0,8.0,-999,0.00,,,-99.99,,2013-06-13 17:12:00,
2013-06-13 11:25:00,72.0,-99.9,-100.00,South,181,6.0,9.0,-999,0.00,,,-99.99,,2013-06-13 17:25:00,
2013-06-13 11:33:00,71.0,-99.9,-100.00,SSW,193,7.0,9.0,-999,0.00,,,-99.99,,2013-06-13 17:33:00,
2013-06-13 11:43:00,69.0,-99.9,-100.00,SSW,205,7.0,9.0,-999,0.00,,,-99.99,,2013-06-13 17:43:00,
2013-06-13 11:53:00,72.0,-99.9,-100.00,SSE,167,7.0,8.0,-999,0.00,,,-99.99,,2013-06-13 17:53:00,
2013-06-13 12:02:00,73.0,-99.9,-100.00,South,190,7.0,8.0,-999,0.00,,,-99.99,,2013-06-13 18:02:00,
2013-06-13 12:12:00,73.0,-99.9,-100.00,SSW,203,8.0,9.0,-999,0.00,,,-99.99,,2013-06-13 18:12:00,
2013-06-13 12:22:00,73.0,-99.9,-100.00,South,173,7.0,9.0,-999,0.00,,,-99.99,,2013-06-13 18:22:00,
2013-06-13 12:33:00,74.0,-99.9,-100.00,SSW,197,7.0,9.0,-999,0.00,,,-99.99,,2013-06-13 18:33:00,
2013-06-13 12:43:00,75.0,-99.9,-100.00,SSW,208,7.0,8.0,-999,0.00,,,-99.99,,2013-06-13 18:43:00,
2013-06-13 12:52:00,74.0,-99.9,-100.00,South,176,7.0,8.0,-999,0.00,,,-99.99,,2013-06-13 18:52:00,
2013-06-13 13:02:00,75.0,-99.9,-100.00,SW,218,6.0,8.0,-999,0.00,,,-99.99,,2013-06-13 19:02:00,
2013-06-13 13:11:00,75.0,-99.9,-100.00,South,188,7.0,10.0,-999,0.00,,,-99.99,,2013-06-13 19:11:00,
2013-06-13 13:23:00,76.0,-99.9,-100.00,South,184,6.0,9.0,-999,0.00,,,-99.99,,2013-06-13 19:23:00,
2013-06-13 13:33:00,76.0,-99.9,-100.00,South,183,7.0,9.0,-999,0.00,,,-99.99,,2013-06-13 19:33:00,
2013-06-13 13:43:00,76.0,-99.9,-100.00,SSW,201,7.0,9.0,-999,0.00,,,-99.99,,2013-06-13 19:43:00,
2013-06-13 13:53:00,76.0,-99.9,-100.00,South,184,7.0,9.0,-999,0.00,,,-99.99,,2013-06-13 19:53:00,
2013-06-13 14:02:00,76.0,-99.9,-100.00,South,183,7.0,9.0,-999,0.00,,,-99.99,,2013-06-13 20:02:00,
2013-06-13 14:12:00,76.0,-99.9,-100.00,SSE,165,8.0,10.0,-999,0.00,,,-99.99,,2013-06-13 20:12:00,
2013-06-13 14:22:00,76.0,-99.9,-100.00,SSE,160,7.0,10.0,-999,0.00,,,-99.99,,2013-06-13 20:22:00,
2013-06-13 14:33:00,76.0,-99.9,-100.00,South,188,7.0,9.0,-999,0.00,,,-99.99,,2013-06-13 20:33:00,
2013-06-13 14:44:00,76.0,-99.9,-100.00,South,169,7.0,10.0,-999,0.00,,,-99.99,,2013-06-13 20:44:00,
2013-06-13 14:53:00,76.0,-99.9,-100.00,South,186,7.0,9.0,-999,0.00,,,-99.99,,2013-06-13 20:53:00,
2013-06-13 15:02:00,74.0,-99.9,-100.00,SSW,211,6.0,8.0,-999,0.00,,,-99.99,,2013-06-13 21:02:00,
2013-06-13 15:12:00,72.0,-99.9,-100.00,SW,214,6.0,8.0,-999,0.00,,,-99.99,,2013-06-13 21:12:00,
2013-06-13 15:22:00,72.0,-99.9,-100.00,SW,217,5.0,6.0,-999,0.00,,,-99.99,,2013-06-13 21:22:00,
2013-06-13 15:34:00,72.0,-99.9,-100.00,WSW,253,4.0,5.0,-999,0.00,,,-99.99,,2013-06-13 21:34:00,
2013-06-13 15:43:00,72.0,-99.9,-100.00,North,0,0.0,0.0,-999,0.00,,,-99.99,,2013-06-13 21:43:00,
2013-06-13 15:52:00,74.0,-99.9,-100.00,North,0,0.0,0.0,-999,0.00,,,-99.99,,2013-06-13 21:52:00,
2013-06-13 16:02:00,75.0,-99.9,-100.00,SW,217,0.0,2.0,-999,0.00,,,-99.99,,2013-06-13 22:02:00,
2013-06-13 16:11:00,76.0,-99.9,-100.00,South,177,2.0,4.0,-999,0.00,,,-99.99,,2013-06-13 22:11:00,
2013-06-13 16:22:00,79.0,-99.9,-100.00,SW,222,4.0,6.0,-999,0.00,,,-99.99,,2013-06-13 22:22:00,
2013-06-13 16:33:00,77.0,-99.9,-100.00,South,191,4.0,6.0,-999,0.00,,,-99.99,,2013-06-13 22:33:00,
2013-06-13 16:43:00,76.0,-99.9,-100.00,South,172,5.0,7.0,-999,0.00,,,-99.99,,2013-06-13 22:43:00,
2013-06-13 16:52:00,76.0,-99.9,-100.00,SSE,155,5.0,8.0,-999,0.00,,,-99.99,,2013-06-13 22:52:00,
2013-06-13 17:02:00,76.0,-99.9,-100.00,South,184,5.0,7.0,-999,0.00,,,-99.99,,2013-06-13 23:02:00,
2013-06-13 17:22:00,79.0,-99.9,-100.00,SSE,150,6.0,9.0,-999,0.00,,,-99.99,,2013-06-13 23:22:00,
2013-06-13 17:32:00,76.0,-99.9,-100.00,South,173,7.0,8.0,-999,0.00,,,-99.99,,2013-06-13 23:32:00,
2013-06-13 17:43:00,74.0,-99.9,-100.00,SSW,200,7.0,10.0,-999,0.00,,,-99.99,,2013-06-13 23:43:00,
2013-06-13 17:53:00,73.0,-99.9,-100.00,SSE,160,7.0,10.0,-999,0.00,,,-99.99,,2013-06-13 23:53:00,
2013-06-13 18:02:00,72.0,-99.9,-100.00,South,174,6.0,8.0,-999,0.00,,,-99.99,,2013-06-14 00:02:00,
2013-06-13 18:12:00,72.0,-99.9,-100.00,South,170,6.0,8.0,-999,0.00,,,-99.99,,2013-06-14 00:12:00,
2013-06-13 18:22:00,74.0,-99.9,-100.00,SSW,201,6.0,8.0,-999,0.00,,,-99.99,,2013-06-14 00:22:00,
2013-06-13 18:34:00,75.0,-99.9,-100.00,SSW,198,7.0,9.0,-999,0.00,,,-99.99,,2013-06-14 00:34:00,
2013-06-13 18:43:00,77.0,-99.9,-100.00,SSW,198,7.0,8.0,-999,0.00,,,-99.99,,2013-06-14 00:43:00,
2013-06-13 18:53:00,78.0,-99.9,-100.00,SSW,200,7.0,8.0,-999,0.00,,,-99.99,,2013-06-14 00:53:00,
2013-06-13 19:02:00,77.0,-99.9,-100.00,South,191,6.0,9.0,-999,0.00,,,-99.99,,2013-06-14 01:02:00,
2013-06-13 19:12:00,78.0,-99.9,-100.00,SSW,205,6.0,7.0,-999,0.00,,,-99.99,,2013-06-14 01:12:00,
2013-06-13 19:22:00,78.0,-99.9,-100.00,SSW,205,6.0,7.0,-999,0.00,,,-99.99,,2013-06-14 01:22:00,
2013-06-13 19:33:00,78.0,-99.9,-100.00,South,172,6.0,8.0,-999,0.00,,,-99.99,,2013-06-14 01:33:00,
2013-06-13 19:43:00,78.0,-99.9,-100.00,SSE,152,5.0,7.0,-999,0.00,,,-99.99,,2013-06-14 01:43:00,
2013-06-13 19:53:00,77.0,-99.9,-100.00,South,181,5.0,7.0,-999,0.00,,,-99.99,,2013-06-14 01:53:00,
2013-06-13 20:02:00,77.0,-99.9,-100.00,SSE,159,3.0,6.0,-999,0.00,,,-99.99,,2013-06-14 02:02:00,
2013-06-13 20:11:00,70.0,-99.9,-100.00,SSE,165,4.0,5.0,-999,0.00,,,-99.99,,2013-06-14 02:11:00,
2013-06-13 20:22:00,67.0,-99.9,-100.00,South,184,3.0,5.0,-999,0.00,,,-99.99,,2013-06-14 02:22:00,
2013-06-13 20:33:00,67.0,-99.9,-100.00,South,173,1.0,5.0,-999,0.00,,,-99.99,,2013-06-14 02:33:00,
2013-06-13 20:43:00,67.0,-99.9,-100.00,SSE,163,1.0,4.0,-999,0.00,,,-99.99,,2013-06-14 02:43:00,
2013-06-13 20:53:00,66.0,-99.9,-100.00,SSE,159,1.0,3.0,-999,0.00,,,-99.99,,2013-06-14 02:53:00,
2013-06-13 21:02:00,66.0,-99.9,-100.00,SSE,163,2.0,5.0,-999,0.00,,,-99.99,,2013-06-14 03:02:00,
2013-06-13 21:12:00,65.0,-99.9,-100.00,South,169,5.0,6.0,-999,0.00,,,-99.99,,2013-06-14 03:12:00,
2013-06-13 21:22:00,65.0,-99.9,-100.00,South,174,3.0,6.0,-999,0.00,,,-99.99,,2013-06-14 03:22:00,
2013-06-13 21:34:00,65.0,-99.9,-100.00,SSW,207,4.0,5.0,-999,0.00,,,-99.99,,2013-06-14 03:34:00,
2013-06-13 21:43:00,65.0,-99.9,-100.00,SSW,201,4.0,6.0,-999,0.00,,,-99.99,,2013-06-14 03:43:00,
2013-06-13 21:53:00,65.0,-99.9,-100.00,South,180,5.0,7.0,-999,0.00,,,-99.99,,2013-06-14 03:53:00,
2013-06-13 22:02:00,64.0,-99.9,-100.00,South,190,4.0,6.0,-999,0.00,,,-99.99,,2013-06-14 04:02:00,
2013-06-13 22:12:00,64.0,-99.9,-100.00,North,0,0.0,0.0,-999,0.00,,,-99.99,,2013-06-14 04:12:00,
2013-06-13 22:23:00,65.0,-99.9,-100.00,North,0,0.0,0.0,-999,0.00,,,-99.99,,2013-06-14 04:23:00,
2013-06-13 22:33:00,64.0,-99.9,-100.00,North,0,0.0,0.0,-999,0.00,,,-99.99,,2013-06-14 04:33:00,
2013-06-13 22:43:00,65.0,-99.9,-100.00,North,0,0.0,0.0,-999,0.00,,,-99.99,,2013-06-14 04:43:00,
2013-06-13 22:53:00,65.0,-99.9,-100.00,North,0,0.0,0.0,-999,0.00,,,-99.99,,2013-06-14 04:53:00,
2013-06-13 23:02:00,64.0,-99.9,-100.00,North,0,0.0,0.0,-999,0.00,,,-99.99,,2013-06-14 05:02:00,
2013-06-13 23:12:00,63.0,-99.9,-100.00,North,0,0.0,0.0,-999,0.00,,,-99.99,,2013-06-14 05:12:00,
2013-06-13 23:22:00,63.0,-99.9,-100.00,North,0,0.0,0.0,-999,0.00,,,-99.99,,2013-06-14 05:22:00,
2013-06-13 23:34:00,62.0,-99.9,-100.00,South,174,0.0,3.0,-999,0.00,,,-99.99,,2013-06-14 05:34:00,
2013-06-13 23:43:00,62.0,-99.9,-100.00,North,0,0.0,0.0,-999,0.00,,,-99.99,,2013-06-14 05:43:00,
2013-06-13 23:52:00,62.0,-99.9,-100.00,North,0,0.0,0.0,-999,0.00,,,-99.99,,2013-06-14 05:52:00,